Temperature
-1 -1 -0 -0 0 0 1 1 1 2 2 2 2 2 2 3 3 3 3 3 3 4 4 4 4 4 5 5 5 5 5 5 5 5 5 5 5 5 5 5 5 5 6
-2 -2 -1 -1 -0 -0 0 1 1 1 1 1 2 2 2 2 2 2 2 3 3 3 3 3 4 4 4 4 4 4 4 5 5 5 5 4 5 5 5 5 5 5 5
-2 -2 -2 -1 -1 -1 -0 0 0 1 1 1 1 1 1 2 2 2 2 2 2 2 2 3 3 3 4 4 4 4 4 4 4 4 4 4 4 4 4 4 4 4 5
-3 -3 -2 -2 -2 -2 -1 -1 -0 -0 0 0 1 1 1 1 1 1 1 2 2 2 2 2 2 3 3 3 3 3 3 3 3 3 3 3 3 3 3 3 4 4 4
-4 -3 -3 -3 -2 -2 -2 -1 -1 -1 -0 -0 0 0 0 0 1 1 1 1 1 1 2 2 2 2 2 3 3 3 3 3 3 3 3 3 3 3 3 3 3 3 3
-4 -4 -4 -4 -3 -3 -2 -2 -2 -1 -1 -1 -1 -0 -0 -0 -0 0 1 1 1 1 1 1 2 2 2 2 2 2 2 2 2 2 2 2 2 2 2 2 2 2 2
-5 -5 -4 -4 -4 -4 -3 -3 -2 -2 -2 -1 -1 -1 -1 -1 -1 -0 -0 0 0 1 1 1 1 1 1 1 1 1 2 2 2 2 2 2 2 2 2 2 2 2 2
-6 -5 -5 -5 -5 -4 -4 -3 -3 -3 -2 -2 -2 -2 -1 -1 -1 -1 -1 -1 -0 0 0 0 1 1 1 1 1 1 1 1 1 1 2 2 2 2 2 1 1 1 1
-6 -6 -6 -5 -5 -5 -5 -4 -4 -3 -3 -3 -2 -2 -2 -2 -1 -1 -1 -1 -1 -0 -0 -0 0 0 1 0 1 1 1 1 1 1 1 1 1 1 1 1 1 1 1
-7 -7 -6 -6 -6 -5 -5 -5 -4 -4 -4 -3 -3 -3 -2 -2 -2 -2 -2 -2 -1 -1 -1 -1 -0 -0 -0 -0 0 0 0 0 1 1 1 1 1 1 1 1 1 0 0
-8 -7 -7 -6 -6 -6 -6 -5 -5 -5 -4 -4 -4 -3 -3 -3 -3 -2 -2 -2 -2 -2 -2 -1 -1 -1 -1 -0 -0 -0 0 0 0 0 0 0 0 0 0 0 0 -0 -0
-8 -8 -7 -7 -6 -6 -6 -6 -6 -6 -5 -5 -4 -4 -4 -3 -3 -3 -3 -2 -2 -2 -2 -2 -2 -1 -1 -1 -1 -1 -1 -1 -0 -0 -0 -0 -0 -0 -0 -0 -0 -1 -1
-9 -8 -8 -7 -7 -7 -7 -7 -6 -6 -6 -6 -5 -5 -4 -4 -4 -3 -3 -3 -3 -3 -2 -2 -2 -2 -2 -1 -1 -1 -1 -1 -1 -1 -1 -1 -1 -1 -1 -1 -1 -1 -1
-9 -9 -8 -8 -7 -7 -7 -7 -7 -7 -7 -6 -6 -5 -5 -5 -4 -4 -3 -3 -3 -3 -3 -3 -3 -3 -2 -2 -2 -2 -2 -2 -2 -2 -2 -1 -2 -2 -2 -2 -2 -2 -2
-9 -9 -9 -8 -8 -8 -8 -8 -8 -7 -7 -7 -7 -6 -6 -5 -5 -4 -4 -4 -4 -3 -3 -3 -3 -3 -3 -3 -3 -3 -3 -2 -2 -2 -2 -2 -2 -2 -2 -2 -2 -2 -2
-10 -9 -9 -9 -9 -9 -8 -8 -8 -8 -7 -7 -7 -7 -6 -6 -5 -5 -5 -4 -4 -4 -4 -4 -4 -4 -4 -3 -3 -3 -3 -3 -3 -3 -3 -3 -3 -3 -3 -3 -3 -3 -3
-10 -10 -10 -10 -9 -9 -9 -9 -8 -8 -8 -7 -7 -7 -7 -6 -6 -5 -5 -5 -5 -5 -5 -5 -4 -4 -4 -4 -4 -4 -4 -4 -4 -3 -3 -3 -3 -3 -3 -3 -3 -3 -3
-10 -10 -10 -10 -10 -10 -10 -9 -9 -9 -8 -8 -7 -7 -7 -7 -6 -6 -6 -6 -6 -5 -5 -5 -5 -5 -5 -4 -4 -4 -4 -4 -4 -4 -4 -4 -4 -4 -4 -4 -4 -4 -4
-10 -10 -10 -10 -10 -10 -10 -10 -10 -9 -9 -8 -8 -7 -7 -7 -7 -7 -6 -6 -6 -6 -6 -6 -6 -5 -5 -5 -5 -5 -5 -5 -5 -5 -4 -4 -4 -4 -4 -4 -4 -4 -5
-11 -11 -11 -10 -10 -10 -10 -10 -10 -10 -9 -9 -9 -8 -8 -8 -7 -7 -7 -7 -7 -7 -7 -6 -6 -6 -6 -6 -5 -5 -5 -5 -5 -5 -5 -5 -5 -5 -5 -5 -5 -5 -5
-11 -11 -11 -11 -11 -11 -11 -11 -11 -10 -10 -10 -9 -9 -9 -8 -8 -8 -8 -8 -7 -7 -7 -7 -7 -6 -6 -6 -6 -6 -6 -6 -6 -6 -6 -5 -5 -5 -5 -5 -5 -6 -6
-12 -11 -11 -11 -11 -11 -11 -11 -11 -11 -10 -10 -10 -9 -9 -9 -9 -9 -8 -8 -8 -8 -8 -7 -7 -7 -7 -7 -7 -6 -6 -6 -6 -6 -6 -6 -6 -6 -6 -6 -6 -6 -6
-12 -12 -12 -12 -12 -11 -11 -11 -11 -11 -11 -10 -10 -10 -9 -9 -9 -9 -9 -9 -8 -8 -8 -8 -8 -7 -7 -7 -7 -7 -7 -7 -7 -7 -7 -7 -6 -6 -6 -6 -6 -6 -6
-13 -12 -12 -12 -12 -12 -12 -12 -11 -11 -11 -11 -11 -10 -10 -10 -9 -9 -9 -9 -9 -9 -8 -8 -8 -8 -8 -7 -7 -7 -7 -7 -7 -7 -7 -7 -7 -7 -7 -7 -7 -7 -7
-13 -13 -13 -13 -12 -12 -12 -12 -12 -12 -12 -11 -11 -11 -10 -10 -10 -10 -9 -9 -9 -9 -9 -9 -8 -8 -8 -8 -8 -8 -7 -7 -7 -7 -7 -7 -7 -7 -7 -7 -7 -7 -7
-13 -13 -13 -13 -13 -13 -13 -12 -12 -12 -12 -12 -12 -11 -11 -11 -10 -10 -10 -10 -10 -9 -9 -9 -9 -9 -8 -8 -8 -8 -8 -8 -8 -8 -8 -8 -8 -8 -8 -8 -8 -8 -8
Wind_Speed
9 9 9 8 8 7 6 6 6 5 4 4 4 4 3 3 3 4 4 4 5 4 4 4 4 4 3 3 3 3 3 3 4 2 2 1 2 2 2 2 3 3 4
9 9 9 8 8 7 7 7 6 6 5 4 4 4 4 4 4 5 5 5 5 5 5 4 4 3 4 3 3 3 3 3 4 4 2 2 3 3 2 2 2 2 3
9 9 9 9 8 8 8 8 7 6 5 4 4 4 4 5 5 5 5 5 6 6 5 5 4 4 4 3 4 3 3 3 3 4 3 2 2 2 1 1 1 1 2
10 9 9 9 8 8 8 8 7 6 5 5 4 4 4 5 5 5 5 5 5 5 5 5 5 5 5 5 4 4 3 3 3 3 3 2 2 2 2 2 2 1 2
10 10 10 9 8 8 8 8 7 6 6 5 5 5 4 4 5 5 4 4 4 4 4 4 4 5 5 5 4 5 5 4 4 4 4 3 3 2 3 2 3 2 2
9 10 10 9 9 8 8 8 7 6 6 5 4 4 5 4 6 5 4 4 4 4 5 4 4 4 5 6 6 6 6 5 5 5 4 4 4 4 3 3 3 2 2
9 9 9 9 9 9 8 8 7 7 6 6 5 4 5 6 6 5 4 2 3 3 4 4 3 3 4 4 5 5 6 7 7 6 6 6 5 5 4 4 4 3 3
10 10 9 9 9 9 8 7 7 7 6 5 5 5 5 5 6 5 4 2 3 3 4 4 4 4 4 4 4 4 4 4 6 5 6 6 5 6 6 5 4 2 1
11 11 10 9 9 9 8 8 7 6 6 6 5 5 5 6 6 5 4 2 2 3 3 3 4 4 5 5 4 4 3 3 4 5 6 5 6 7 6 3 3 3 2
12 12 10 9 9 8 8 8 7 6 6 6 6 5 5 5 5 5 5 2 2 2 2 3 4 4 5 5 4 5 5 4 3 2 3 3 3 5 7 6 5 4 2
12 11 10 9 9 8 7 7 7 6 6 6 6 5 5 5 5 5 5 2 2 2 2 2 3 4 4 4 4 4 4 3 3 3 3 2 2 2 3 4 4 4 4
11 11 10 9 8 8 7 7 6 5 5 6 5 5 4 4 5 5 6 5 4 3 3 3 3 3 3 3 2 3 2 2 2 2 2 2 2 2 2 2 3 2 2
11 11 10 10 8 8 7 7 6 5 4 5 5 5 5 4 4 6 6 6 6 3 2 3 3 2 2 1 2 1 1 2 2 2 3 2 2 2 2 2 2 3 2
11 11 10 9 8 7 6 6 5 5 4 5 5 5 5 4 4 3 3 3 3 2 1 1 1 1 1 1 1 1 1 2 2 2 2 1 1 2 2 1 1 1 1
11 10 9 8 8 7 6 5 6 5 6 5 5 5 5 5 6 7 4 3 2 2 0 0 0 0 1 0 0 1 1 1 1 1 2 1 1 2 1 1 1 1 1
10 10 7 7 6 6 6 6 8 8 10 10 9 7 6 7 8 7 6 6 4 2 1 1 1 1 2 2 1 1 1 1 1 1 2 2 2 2 2 1 1 2 2
10 10 7 7 6 6 6 6 6 8 10 10 9 9 8 9 7 6 5 4 2 0 0 0 1 1 1 2 2 2 2 1 1 2 2 2 2 2 2 2 2 2 2
10 10 8 6 6 6 6 6 5 6 6 6 8 9 9 8 7 6 4 2 1 1 0 1 1 1 1 1 1 1 1 1 1 1 2 2 2 2 2 2 2 2 2
9 7 7 6 5 5 5 5 5 5 5 5 6 6 8 7 6 5 3 1 1 1 1 1 1 1 1 1 1 1 1 1 1 1 1 2 2 2 2 2 2 3 2
8 12 10 6 5 5 5 5 5 5 5 5 5 5 5 4 3 3 3 2 1 1 1 1 1 1 1 1 1 1 1 1 1 1 1 1 1 2 2 3 3 3 2
8 9 11 7 5 5 5 5 5 5 5 5 5 6 6 3 3 3 3 3 2 2 2 2 1 1 1 1 1 1 1 1 1 1 1 1 1 1 1 2 2 2 2
7 6 6 6 5 5 5 5 5 5 5 5 5 6 8 4 3 3 3 3 3 3 2 2 1 1 1 1 1 1 1 1 1 1 1 1 1 1 1 2 2 2 2
7 7 6 6 6 7 7 5 5 4 5 5 5 5 5 4 3 3 3 3 3 4 3 2 1 1 1 1 1 1 2 2 2 2 2 2 2 2 2 2 3 2 2
6 6 6 6 6 5 5 5 5 5 5 5 5 5 4 4 4 4 4 3 3 4 4 3 2 2 2 2 1 1 1 2 2 3 3 3 3 2 2 2 2 3 3
6 5 6 5 5 5 5 5 5 5 5 5 5 4 4 4 4 4 3 3 3 3 4 4 3 2 2 3 2 1 1 1 1 2 2 2 3 3 3 3 3 2 2
5 6 5 5 5 5 5 5 5 5 5 5 5 4 4 4 4 4 3 3 3 3 4 4 4 4 4 3 2 1 1 1 1 1 1 2 2 2 3 3 3 3 3
Wind_Direction
337 332 329 325 323 322 318 312 309 309 301 287 265 256 247 243 246 237 228 218 213 218 226 216 221 214 208 205 197 198 209 205 228 247 239 235 211 222 249 240 245 246 247
334 333 328 325 326 324 319 317 314 309 306 294 279 260 256 246 238 238 233 223 215 217 217 208 220 213 204 200 195 202 212 210 207 225 233 231 233 220 224 234 254 249 249
332 332 331 328 326 321 317 317 314 308 304 300 290 266 259 252 246 237 229 224 223 217 209 209 216 207 210 205 198 201 210 211 202 205 224 231 237 218 222 259 261 261 254
333 332 330 325 321 316 315 317 312 307 301 295 287 280 269 261 249 242 235 229 223 219 216 215 215 210 212 205 204 202 201 204 197 198 207 219 229 208 189 221 261 250 255
332 330 327 323 319 318 318 319 315 310 305 295 287 290 279 264 250 243 232 230 224 220 219 221 221 218 218 212 210 201 197 204 202 202 212 214 214 196 210 205 232 250 265
328 324 324 325 324 321 318 318 316 309 306 303 295 291 288 273 270 266 250 231 224 218 218 222 225 222 223 227 224 217 210 209 210 209 217 218 223 210 200 200 206 216 254
323 321 322 324 323 320 318 318 316 309 308 307 299 292 287 282 279 273 271 251 224 222 219 215 224 225 220 213 220 225 230 231 227 220 215 219 216 207 197 208 214 219 228
323 322 320 322 320 320 318 315 313 308 305 300 298 291 289 291 289 283 277 257 235 232 231 219 212 220 219 208 206 216 228 238 239 227 218 217 216 204 202 210 210 208 226
325 322 318 318 316 317 317 315 313 309 305 300 298 296 293 292 288 285 288 252 246 248 246 232 217 219 229 216 201 206 227 248 252 239 230 224 220 213 197 178 179 187 234
321 317 314 315 312 312 311 312 314 311 304 304 301 296 290 289 286 287 288 246 244 252 254 248 247 239 231 219 202 198 217 235 223 232 230 219 213 205 204 199 191 193 203
317 317 317 315 311 306 306 309 312 310 309 306 302 300 295 292 292 292 291 257 239 246 254 256 257 259 249 233 222 211 221 219 206 207 209 195 184 188 201 201 193 189 196
318 318 316 314 311 310 309 309 312 310 310 307 306 306 301 299 300 297 293 290 282 245 248 251 251 256 256 245 235 227 217 195 185 194 204 199 195 197 188 179 177 172 186
318 317 316 314 311 310 309 308 310 308 306 309 306 303 305 306 301 301 294 295 293 270 248 253 257 254 260 242 237 233 205 185 189 206 213 213 199 175 150 126 110 106 84
317 315 314 314 313 312 307 304 304 303 303 304 306 301 302 305 300 290 281 285 286 279 263 249 292 292 271 277 272 273 245 206 198 208 209 193 155 148 149 147 151 139 113
315 313 314 313 309 308 308 302 298 290 295 299 300 298 298 300 303 304 294 282 266 260 274 30 338 235 222 234 257 244 231 206 203 187 173 165 165 158 155 139 144 138 160
316 316 314 313 311 310 309 312 312 310 312 312 313 309 303 305 312 314 310 303 288 262 223 213 240 234 235 231 230 248 241 220 206 185 173 175 181 178 167 149 149 157 169
311 310 309 312 312 312 311 311 314 319 320 320 321 317 316 319 318 315 309 311 321 65 94 235 260 258 249 237 232 228 233 234 203 182 180 184 183 179 170 170 171 164 175
311 308 309 306 307 307 308 308 306 308 315 318 320 320 322 323 323 325 324 331 326 355 347 277 281 279 267 262 248 239 226 202 184 180 180 184 184 181 179 180 182 181 180
314 312 306 304 306 308 309 310 309 306 305 311 318 321 325 325 326 337 350 347 302 310 322 318 309 292 275 264 259 242 218 198 185 183 187 185 182 174 180 180 178 179 176
316 317 319 314 313 314 316 316 315 314 313 314 316 319 325 331 339 342 346 340 320 302 303 303 303 297 284 264 235 210 200 189 173 179 188 186 179 182 188 181 181 183 188
318 320 324 320 314 313 313 312 312 314 316 318 317 320 331 335 331 325 323 325 318 306 300 294 289 289 289 278 242 204 192 202 207 198 188 190 184 186 193 185 183 182 179
318 319 322 321 320 319 317 317 319 318 319 320 321 325 333 341 338 333 329 326 324 321 310 294 282 284 279 254 233 216 207 209 210 204 199 195 191 185 182 186 184 184 178
319 319 320 321 321 321 324 323 323 323 322 321 323 326 330 334 334 333 330 330 331 326 329 322 306 312 318 306 261 227 210 215 218 205 197 196 191 193 193 191 186 185 190
320 319 320 321 322 321 320 321 323 322 322 321 322 323 326 328 328 329 332 335 330 331 333 328 320 315 314 315 305 276 235 217 205 202 199 192 192 192 192 190 191 195 194
324 324 324 323 322 320 320 320 322 323 323 322 320 321 325 327 327 325 330 331 332 335 337 332 327 324 317 311 302 288 253 234 228 204 193 189 186 192 193 192 191 183 183
331 328 325 323 322 322 321 321 322 324 323 321 320 321 322 322 322 323 325 328 328 329 331 331 331 326 319 318 306 289 281 270 247 233 185 177 177 188 187 185 178 180 178
Height
1482 1479 1477 1475 1474 1472 1471 1470 1469 1469 1469 1469 1470 1470 1470 1471 1473 1474 1475 1477 1478 1480 1482 1484 1485 1488 1489 1491 1493 1495 1496 1498 1498 1499 1501 1502 1503 1505 1506 1507 1508 1509 1510
1479 1477 1474 1472 1470 1468 1467 1466 1465 1465 1465 1465 1465 1465 1466 1467 1468 1469 1469 1471 1473 1474 1476 1478 1480 1482 1484 1486 1488 1489 1491 1493 1494 1494 1495 1497 1498 1500 1500 1501 1502 1504 1504
1478 1475 1472 1469 1467 1465 1463 1462 1461 1461 1461 1461 1461 1461 1462 1462 1463 1464 1465 1466 1468 1469 1471 1473 1475 1477 1479 1481 1483 1484 1486 1488 1489 1489 1490 1492 1493 1495 1495 1496 1497 1498 1499
1475 1472 1469 1467 1465 1462 1460 1459 1458 1457 1457 1457 1457 1457 1457 1458 1458 1459 1460 1461 1462 1464 1466 1468 1470 1472 1473 1476 1477 1479 1481 1482 1484 1484 1485 1486 1488 1489 1490 1491 1492 1493 1494
1473 1470 1467 1464 1462 1460 1458 1456 1455 1454 1453 1453 1452 1452 1453 1453 1454 1454 1456 1457 1458 1459 1461 1463 1465 1467 1469 1471 1473 1474 1475 1477 1478 1479 1480 1481 1483 1484 1485 1486 1487 1488 1489
1470 1467 1464 1461 1459 1457 1455 1453 1451 1450 1449 1449 1448 1448 1448 1449 1449 1450 1451 1452 1453 1454 1455 1458 1460 1462 1464 1466 1467 1469 1470 1471 1472 1474 1475 1476 1477 1479 1480 1481 1482 1483 1483
1467 1464 1461 1459 1456 1453 1451 1450 1448 1447 1446 1445 1444 1444 1444 1444 1445 1446 1447 1447 1448 1449 1451 1453 1455 1457 1459 1460 1462 1463 1464 1466 1468 1469 1470 1471 1472 1474 1475 1476 1477 1478 1479
1464 1461 1458 1456 1453 1451 1448 1446 1445 1443 1442 1441 1440 1440 1439 1440 1441 1441 1442 1443 1444 1445 1446 1448 1450 1451 1453 1455 1457 1457 1459 1460 1462 1463 1464 1466 1468 1469 1470 1471 1472 1473 1474
1460 1457 1455 1453 1450 1447 1445 1443 1441 1440 1438 1438 1437 1436 1436 1436 1437 1437 1438 1438 1439 1440 1442 1443 1445 1446 1448 1450 1452 1452 1453 1455 1457 1458 1460 1461 1463 1464 1465 1466 1467 1468 1469
1457 1454 1451 1449 1446 1444 1441 1439 1438 1436 1435 1434 1433 1433 1432 1432 1432 1433 1434 1434 1435 1436 1437 1439 1440 1442 1444 1445 1447 1447 1448 1450 1451 1453 1454 1456 1457 1458 1459 1461 1462 1463 1464
1454 1451 1448 1445 1443 1440 1438 1436 1434 1433 1431 1430 1429 1429 1429 1428 1429 1429 1430 1430 1431 1432 1433 1434 1435 1437 1439 1440 1442 1443 1444 1446 1447 1448 1449 1450 1452 1453 1454 1455 1457 1458 1459
1451 1447 1444 1441 1439 1437 1434 1432 1431 1429 1428 1427 1426 1425 1425 1425 1425 1425 1426 1426 1427 1428 1429 1430 1431 1433 1434 1435 1437 1438 1440 1441 1442 1443 1444 1445 1446 1448 1449 1450 1452 1454 1455
1447 1443 1440 1437 1435 1433 1431 1429 1427 1426 1424 1423 1422 1422 1421 1421 1422 1422 1422 1423 1424 1424 1425 1426 1427 1428 1430 1431 1433 1434 1435 1436 1437 1438 1439 1440 1442 1443 1445 1446 1447 1449 1451
1443 1440 1436 1434 1431 1429 1427 1426 1424 1423 1421 1420 1420 1419 1418 1418 1418 1418 1419 1419 1420 1421 1421 1422 1423 1424 1426 1427 1428 1430 1431 1432 1433 1434 1435 1436 1438 1439 1440 1441 1443 1444 1446
1441 1437 1434 1431 1429 1426 1424 1423 1421 1420 1420 1419 1418 1417 1416 1415 1415 1416 1416 1416 1416 1417 1417 1418 1419 1421 1422 1423 1424 1425 1426 1427 1428 1430 1431 1432 1433 1435 1436 1437 1439 1440 1441
1438 1434 1431 1428 1426 1424 1421 1419 1418 1418 1417 1416 1416 1415 1414 1413 1413 1413 1413 1413 1413 1414 1415 1415 1416 1417 1418 1419 1420 1421 1422 1423 1424 1426 1427 1428 1429 1431 1432 1434 1435 1436 1437
1437 1433 1429 1426 1424 1421 1419 1417 1415 1414 1414 1413 1413 1412 1411 1410 1410 1410 1410 1410 1410 1411 1411 1412 1412 1413 1414 1415 1417 1418 1418 1420 1421 1422 1423 1424 1426 1427 1428 1430 1431 1432 1434
1434 1431 1427 1424 1422 1419 1417 1415 1414 1412 1410 1409 1410 1409 1409 1408 1407 1407 1407 1407 1407 1408 1408 1409 1409 1410 1411 1412 1413 1414 1415 1416 1417 1418 1419 1421 1422 1423 1425 1426 1428 1429 1430
1431 1428 1425 1422 1420 1417 1415 1413 1412 1410 1409 1408 1407 1407 1406 1406 1405 1405 1405 1405 1405 1405 1406 1406 1407 1408 1409 1410 1410 1411 1412 1413 1414 1415 1416 1417 1419 1420 1421 1423 1424 1426 1427
1429 1426 1423 1421 1418 1415 1413 1411 1410 1408 1407 1406 1405 1405 1404 1404 1403 1403 1403 1403 1403 1403 1403 1404 1405 1405 1406 1407 1408 1409 1409 1410 1411 1412 1413 1415 1416 1417 1418 1419 1421 1422 1423
1427 1424 1422 1419 1416 1414 1412 1410 1409 1407 1406 1405 1404 1404 1404 1402 1401 1401 1401 1401 1401 1401 1401 1402 1402 1403 1404 1404 1405 1406 1407 1407 1409 1410 1411 1412 1413 1414 1415 1417 1418 1419 1420
1426 1423 1420 1418 1415 1413 1411 1409 1408 1406 1405 1403 1402 1402 1402 1401 1400 1399 1399 1399 1399 1399 1399 1400 1400 1401 1401 1402 1403 1403 1404 1405 1406 1407 1408 1409 1410 1411 1412 1413 1415 1416 1417
1424 1421 1419 1416 1414 1412 1410 1408 1407 1405 1404 1402 1401 1400 1400 1399 1398 1398 1397 1397 1397 1397 1397 1398 1398 1398 1399 1400 1401 1401 1402 1402 1403 1404 1405 1406 1407 1408 1409 1410 1412 1413 1414
1423 1420 1417 1415 1413 1411 1409 1407 1405 1404 1402 1401 1400 1399 1398 1397 1397 1396 1396 1396 1395 1395 1395 1396 1396 1396 1397 1397 1398 1399 1399 1400 1401 1402 1402 1403 1404 1405 1406 1407 1409 1410 1411
1422 1419 1416 1414 1411 1409 1407 1406 1404 1402 1401 1400 1399 1398 1397 1396 1395 1395 1394 1394 1394 1393 1393 1394 1394 1394 1395 1395 1396 1396 1397 1397 1398 1399 1399 1400 1401 1402 1403 1404 1406 1407 1408
1421 1418 1415 1412 1410 1408 1406 1404 1402 1401 1400 1398 1397 1396 1395 1394 1394 1393 1393 1392 1392 1392 1392 1392 1392 1392 1393 1393 1393 1394 1394 1395 1395 1396 1397 1397 1398 1399 1400 1401 1403 1404 1405